[[{"header":{"parameterUnit":"m.s-1","parameterCategory":1,"la1":30.2991,"la2":30.254,"lo1":-89.0895,"lo2":-89.0444,"dy":0.0017,"dx":0.0017,"nx":28,"ny":28,"refTime":"2023-07-29T03:00:00:Z","depth":0,"parameterNumber":2,"parameterNumberName":"U-component_of_WINDS"},"data":[0,0,0,0,0,0,0,0,0,0,0,0,0,0,0,0,0,0,0,0,0,0,0,0,0,0,0,0,0,0,0,0,0,0,0,0,0,0,0,0,0,0,0,0,0,0,0,0,0,0,0,0,0,0,0,0,0,0,2.143,2.1431,0,2.1549,2.1551,2.1552,2.15,2.1497,2.1494,2.1491,2.1624,2.163,2.1636,0,0,0,0,0,0,0,0,0,0,0,0,0,2.1166,2.1171,2.143,2.1431,2.1433,2.1549,2.1551,2.1552,2.1501,2.1497,2.1494,2.149,2.1621,2.1629,2.1636,0,0,0,0,0,0,0,0,0,0,0,0,0,2.1283,2.1173,2.1429,2.1421,2.1421,2.1549,2.1551,2.1553,2.1501,2.1497,2.1493,2.1488,2.1619,2.1628,2.1637,2.1784,0,0,2.1666,2.167,0,0,0,0,0,0,0,0,2.1276,2.1293,2.142,2.1421,2.1422,2.1505,2.1506,2.1631,2.1503,2.1471,2.1491,2.1486,2.1588,2.16,2.1632,2.179,2.1795,2.1667,2.1673,2.1677,2.1679,0,0,0,0,0,0,0,2.1268,2.1287,2.1477,2.1422,2.1423,2.1414,2.1426,2.1529,2.1554,2.1474,2.147,2.1484,2.1588,2.1623,2.1635,2.1797,2.1667,2.1675,2.1681,2.1684,2.2084,2.2089,0,0,0,0,0,0,2.1259,2.1281,2.1473,2.1481,2.1336,2.1422,2.1435,2.1483,2.1552,2.1558,2.1488,2.1482,2.161,2.1624,2.164,2.1818,2.1677,2.1685,2.1691,2.2079,2.2085,2.2091,0,0,0,0,0,0,2.1253,2.1276,2.1469,2.138,2.1403,2.1431,2.1486,2.1488,2.1523,2.1563,2.1568,2.1519,2.1607,2.1626,2.1748,2.1822,2.169,2.1698,2.2073,2.2081,2.2088,2.2174,0,0,0,0,0,0,2.1246,2.1275,2.1328,2.1381,2.1408,2.1573,2.149,2.1493,2.1538,2.1531,2.1593,2.16,2.1605,2.1735,2.1758,2.1832,2.1705,2.2067,2.2077,2.2086,2.2165,2.2184,2.22,0,0,0,0,0,2.1237,2.1349,2.1331,2.1355,2.1475,2.1577,2.1593,2.1594,2.1544,2.16,2.1626,2.1598,2.1809,2.1747,2.1773,2.1852,2.2063,2.2074,2.2085,2.2157,2.218,2.2199,0,0,0,0,0,0,2.1308,2.1356,2.1337,2.1469,2.1519,2.1568,2.1638,2.1617,2.1685,2.1675,2.1676,2.1691,2.1817,2.1846,2.1777,2.1998,2.1929,2.1946,2.1975,2.1997,2.2014,2.2006,2.1713,0,0,0,0,0,2.1338,2.1413,2.1452,2.1566,2.1591,2.1611,2.1655,2.1651,2.1704,2.1726,2.176,2.1816,2.1894,2.1947,2.2021,2.2168,2.2183,2.2235,2.2252,2.2266,2.2282,2.2365,2.2389,2.2128,2.2127,2.2127,0,0,2.1403,2.1439,2.1487,2.1581,2.1619,2.1701,2.1629,2.1718,2.1779,2.174,2.1857,2.1885,2.1947,2.2082,2.2143,2.211,2.2357,2.228,2.2291,2.23,2.2379,2.2403,2.2425,2.2135,2.2134,2.2133,0,0,2.1563,2.1596,2.1695,2.1734,2.1792,2.1804,2.1828,2.188,2.1896,2.2013,2.1986,2.206,2.2195,2.2241,2.2283,2.246,2.2439,2.2485,2.2577,2.2658,2.2678,2.2697,2.2764,2.2787,2.25,2.25,2.25,0,2.1638,2.1756,2.175,2.1841,2.1885,2.1849,2.1952,2.1992,2.2072,2.2105,2.2065,2.2235,2.2274,2.2421,2.2464,2.2498,2.2528,2.2479,2.2675,2.2694,2.2711,2.2775,2.2799,2.2505,2.2505,2.2504,2.2504,0,2.1847,2.1929,2.2003,2.2079,2.2131,2.2227,2.2239,2.2293,2.2284,2.2301,2.2423,2.2467,2.2552,2.2586,2.2579,2.2733,2.2711,2.2673,2.2604,2.2741,2.2802,2.2826,2.2513,2.2511,2.251,2.2508,0,0,2.2057,2.2127,2.2155,2.219,2.2251,2.2317,2.2412,2.2492,2.254,2.2596,2.268,2.2795,2.276,2.2807,2.2805,2.2876,2.3018,2.283,2.2831,2.2866,2.3194,2.3225,2.3253,2.3002,2.3006,2.301,2.319,0,2.2225,2.239,2.2387,2.2542,2.2621,2.2589,2.2673,2.2721,2.274,2.2812,2.2833,2.2916,2.2862,2.2891,2.2959,2.2986,2.3084,2.2973,2.3084,2.3088,2.3072,2.3284,2.3316,2.3484,2.3213,2.3217,2.322,0,2.2443,2.2504,2.2666,2.2717,2.275,2.2825,2.2899,2.2966,2.3022,2.3031,2.3083,2.307,2.3172,2.3097,2.3239,2.3163,2.3208,2.3228,2.3235,2.3248,2.3165,2.3307,2.3537,2.3564,2.3257,2.3254,2.3251,0,2.2585,2.2708,2.2821,2.2852,2.2913,2.2967,2.2996,2.3046,2.3095,2.316,2.3192,2.3269,2.3313,2.3374,2.3384,2.3328,2.3528,2.3453,2.3542,2.3542,2.3588,2.3586,2.3833,2.3612,2.3611,2.3611,2.361,0,2.2774,2.2876,2.2886,2.2956,2.307,2.3067,2.3181,2.3205,2.325,2.3327,2.3304,2.3377,2.3384,2.3461,2.3469,2.3587,2.3606,2.3619,2.3621,2.3624,2.3622,2.3656,2.3646,2.3617,2.3616,2.3615,2.3613,0,2.2953,2.2963,2.3086,2.3133,2.3147,2.3229,2.3271,2.334,2.3355,2.3453,2.3476,2.3502,2.3591,2.3606,2.3712,2.3717,2.386,2.3848,2.3841,2.3841,2.393,2.3923,2.421,2.4249,2.3998,2.4001,2.4003,0,2.3075,2.3152,2.3207,2.3256,2.3286,2.3365,2.3414,2.3414,2.3466,2.3535,2.3597,2.3683,2.3752,2.3896,2.3927,2.4008,2.4,2.4095,2.4013,2.4013,2.4006,2.4003,2.4012,2.4112,2.4115,2.4117,2.4119,0,2.3292,2.3293,2.3363,2.3435,2.3494,2.3551,2.3606,2.3648,2.3655,2.3716,2.3805,2.3858,2.3965,2.4052,2.4133,2.4165,2.4146,2.4144,2.417,2.4175,2.4169,2.4177,2.3888,2.4139,2.4137,2.4135,2.4134,2.4133,2.3449,2.3517,2.3566,2.3646,2.3686,2.3737,2.3805,2.3827,2.3901,2.3986,2.3982,2.4081,2.4136,2.4242,2.428,2.436,2.433,2.4366,2.4376,2.4386,2.4396,2.4153,2.4374,2.4374,2.4373,2.4373,2.4372,0,2.3668,2.3698,2.377,2.3846,2.3909,2.388,2.3939,2.3995,2.4081,2.4133,2.42,2.4305,2.4389,2.4425,2.4509,2.4566,2.4559,2.4588,2.4586,2.4595,2.4416,2.4387,2.4593,2.4593,2.4593,2.4592,2.4592,2.4592,2.379,2.3904,2.3911,2.4046,2.4075,2.417,2.4207,2.4255,2.4296,2.4413,2.4481,2.4503,2.455,2.4637,2.4714,2.4722,2.4756,2.4791,2.4796,2.4629,2.4607,2.4586,2.4559,2.4797,2.4797,2.4968,2.497,2.4971]},{"header":{"parameterUnit":"m.s-1","parameterCategory":1,"la1":30.2991,"la2":30.254,"lo1":-89.0895,"lo2":-89.0444,"dy":0.0017,"dx":0.0017,"nx":28,"ny":28,"refTime":"2023-07-29T03:00:00:Z","depth":0,"parameterNumber":3,"parameterNumberName":"V-component_of_WINDS"},"data":[0,0,0,0,0,0,0,0,0,0,0,0,0,0,0,0,0,0,0,0,0,0,0,0,0,0,0,0,0,0,0,0,0,0,0,0,0,0,0,0,0,0,0,0,0,0,0,0,0,0,0,0,0,0,0,0,0,0,2.0083,2.0084,0,2.0175,2.0176,2.0177,2.0194,2.0193,2.0192,2.0191,2.0281,2.0284,2.0288,0,0,0,0,0,0,0,0,0,0,0,0,0,1.9916,1.9919,2.0083,2.0084,2.0086,2.0175,2.0176,2.0177,2.0194,2.0193,2.0192,2.0191,2.028,2.0284,2.0288,0,0,0,0,0,0,0,0,0,0,0,0,0,1.9996,1.992,2.0083,2.0105,2.0107,2.0174,2.0176,2.0177,2.0194,2.0193,2.0192,2.0191,2.0279,2.0284,2.0288,2.0339,0,0,2.0302,2.0304,0,0,0,0,0,0,0,0,1.9992,2.0002,2.01,2.0103,2.0107,2.0172,2.015,2.0231,2.0194,2.0161,2.0191,2.019,2.0246,2.0253,2.0272,2.0343,2.0347,2.0303,2.0306,2.0308,2.0309,0,0,0,0,0,0,0,1.9986,1.9999,2.0119,2.0102,2.0105,2.0108,2.0118,2.0166,2.0208,2.0164,2.0165,2.0176,2.0247,2.0268,2.0275,2.0348,2.0303,2.0307,2.031,2.0312,2.046,2.0461,0,0,0,0,0,0,1.9978,1.9994,2.0116,2.0122,2.0045,2.0111,2.0123,2.0152,2.0208,2.0215,2.0177,2.0176,2.0261,2.0269,2.0278,2.0338,2.0308,2.0312,2.0315,2.0459,2.0461,2.0462,0,0,0,0,0,0,1.9974,1.9988,2.0113,2.0058,2.0074,2.0116,2.0148,2.0154,2.0175,2.0218,2.0225,2.0191,2.026,2.0271,2.0323,2.0342,2.0314,2.0318,2.0458,2.046,2.0461,2.0461,0,0,0,0,0,0,1.9969,1.9987,2.0009,2.0059,2.0077,2.0158,2.0149,2.0157,2.0183,2.0184,2.0233,2.024,2.026,2.0316,2.0327,2.0347,2.0322,2.0456,2.0459,2.0461,2.0459,2.0462,2.0465,0,0,0,0,0,1.9963,2.0005,2.001,2.0024,2.0105,2.0159,2.017,2.0193,2.0185,2.0206,2.0232,2.0238,2.0338,2.0321,2.0334,2.0356,2.0455,2.0458,2.0461,2.0458,2.0462,2.0465,0,0,0,0,0,0,1.9956,2.0012,2.0018,2.0078,2.0114,2.0162,2.0189,2.0197,2.0236,2.0234,2.026,2.0271,2.032,2.0343,2.0324,2.0405,2.0395,2.0401,2.0389,2.0393,2.0395,2.0389,2.0326,0,0,0,0,0,1.9961,2.0002,2.0048,2.0096,2.0114,2.0148,2.0173,2.0188,2.0225,2.0241,2.0271,2.0306,2.0345,2.037,2.0409,2.0462,2.0471,2.0483,2.0486,2.0488,2.0492,2.0518,2.0523,2.0471,2.0471,2.047,0,0,1.9973,2.0008,2.0033,2.0096,2.0125,2.0164,2.0161,2.0204,2.0232,2.0247,2.0297,2.032,2.0361,2.0412,2.0437,2.0433,2.0508,2.0491,2.0493,2.0496,2.0521,2.0526,2.0531,2.0472,2.0472,2.0472,0,0,2.0013,2.0046,2.0088,2.0117,2.0161,2.0183,2.0193,2.024,2.0256,2.0307,2.0317,2.035,2.0417,2.0445,2.0468,2.0514,2.0519,2.0525,2.054,2.0565,2.0569,2.0573,2.0587,2.0592,2.0529,2.0529,2.0529,0,2.0022,2.0083,2.0108,2.0149,2.0175,2.019,2.023,2.0257,2.0311,2.0328,2.0323,2.0405,2.0433,2.049,2.0501,2.0519,2.0529,2.052,2.0567,2.0571,2.0574,2.0588,2.0593,2.0529,2.0529,2.0529,2.0529,0,2.009,2.0132,2.016,2.0212,2.0241,2.0282,2.031,2.0335,2.0346,2.0368,2.0417,2.0451,2.0495,2.0509,2.0521,2.0566,2.0562,2.0562,2.0552,2.0579,2.0592,2.0598,2.053,2.053,2.053,2.053,0,0,2.0131,2.0193,2.0203,2.0225,2.0273,2.0305,2.0345,2.0388,2.0408,2.0444,2.0476,2.053,2.0529,2.0554,2.0569,2.0591,2.0621,2.0587,2.0588,2.0591,2.067,2.0669,2.0675,2.0625,2.0626,2.0627,2.0666,0,2.0176,2.0249,2.027,2.033,2.0367,2.0379,2.0413,2.0444,2.0464,2.0497,2.0518,2.0556,2.0552,2.0567,2.059,2.0613,2.0637,2.0611,2.0653,2.0654,2.0642,2.0682,2.0683,2.0718,2.0671,2.0672,2.0673,0,2.0239,2.0275,2.0339,2.0379,2.0395,2.0426,2.0465,2.0497,2.0531,2.0544,2.057,2.0582,2.062,2.0608,2.066,2.0641,2.0659,2.0672,2.0674,2.0679,2.0665,2.0686,2.073,2.0734,2.0681,2.0681,2.068,0,2.0259,2.0324,2.037,2.0389,2.0437,2.0457,2.0478,2.0512,2.0535,2.0569,2.0583,2.062,2.0641,2.0668,2.0687,2.0677,2.0736,2.0727,2.0745,2.0745,2.0757,2.0756,2.0803,2.0771,2.0771,2.0771,2.0771,0,2.0307,2.0345,2.0379,2.0407,2.0449,2.0471,2.0511,2.0532,2.0561,2.0591,2.0604,2.0631,2.0656,2.0686,2.0702,2.074,2.075,2.0759,2.0762,2.0757,2.0756,2.0769,2.0767,2.0772,2.0772,2.0771,2.0771,0,2.0337,2.0362,2.0412,2.0453,2.0464,2.0492,2.0526,2.0552,2.0571,2.0609,2.0619,2.0649,2.0684,2.0707,2.0752,2.0762,2.0804,2.0807,2.0792,2.0794,2.0811,2.0808,2.0867,2.0875,2.0838,2.0839,2.0839,0,2.0365,2.0394,2.0438,2.0459,2.048,2.0515,2.0538,2.056,2.0583,2.0622,2.0643,2.0679,2.071,2.0765,2.0789,2.0823,2.0826,2.0844,2.0832,2.0824,2.0824,2.0822,2.0824,2.0846,2.0847,2.0847,2.0847,0,2.0411,2.0421,2.0455,2.0492,2.052,2.055,2.058,2.0596,2.0622,2.0647,2.0684,2.0708,2.0753,2.0788,2.0823,2.0842,2.0848,2.0851,2.0857,2.0852,2.0841,2.0845,2.0797,2.085,2.0849,2.0849,2.0849,2.0849,2.044,2.0465,2.0499,2.0535,2.056,2.0586,2.0612,2.0634,2.0665,2.0704,2.0714,2.0752,2.0781,2.083,2.0849,2.0877,2.0874,2.0883,2.0885,2.0887,2.0886,2.0837,2.0883,2.0883,2.0883,2.0883,2.0883,0,2.0485,2.0507,2.054,2.0581,2.0608,2.0612,2.0644,2.0666,2.07,2.0727,2.0756,2.0796,2.0829,2.0855,2.0888,2.0905,2.0909,2.0913,2.0912,2.0915,2.0887,2.0878,2.091,2.091,2.091,2.091,2.091,2.091,2.0512,2.0554,2.0567,2.062,2.0641,2.0678,2.0696,2.0719,2.0741,2.0786,2.0814,2.083,2.0856,2.0891,2.092,2.0926,2.0937,2.0941,2.0947,2.0921,2.0918,2.0915,2.0906,2.0943,2.0943,2.0973,2.0973,2.0973]}]]